Regional Weather Roundup
Issued by NWS

Home | Current Version | Previous Version | Graphics & Text | Print | Product List | Glossary On
Versions: 1 2 3 4 5 6 7 8 9 10 11 12 13 14 15 16 17 18 19 20 21 22 23 24 25 26 27 28 29 30 31 32 33 34 35 36 37 38 39 40 41 42 43 44 45 46 47 48 49 50
000
ASUS45 KABQ 241710
RWRNM
NEW MEXICO REGIONAL WEATHER ROUNDUP
NATIONAL WEATHER SERVICE ALBUQUERQUE NM
1100 AM MDT SUN JUL 24 2016

NOTE: "FAIR" MEANS FEW OR NO CLOUDS BELOW 12,000 FEET AGL WITH NO
       SIGNIFICANT WEATHER OR OBSTRUCTIONS TO VISION.

      THIS PRODUCT IS RELEASED AS TWO VERSIONS.  ONE VERSION NEAR
      THE TOP OF THE HOUR CONTAINING PRELIMINARY DATA FROM ALBUQUERQUE
      AND OTHER STATIONS.  A FINAL VERSION WITH ADDITIONAL DATA IS
      ISSUED ABOUT 10 MINUTES AFTER THE HOUR.

NMZ501-503-504-510>518-241800-
NORTHWEST PLATEAU/NORTHCENTRAL MOUNTAINS

CITY           SKY/WX    TMP DP  RH WIND       PRES   REMARKS
FARMINGTON     FAIR      87  44  22 VRB3      30.19S
LOS ALAMOS     FAIR      78  48  35 NE6       30.35S
SANTA FE       FAIR      86  50  28 N9        30.27S
TAOS           FAIR      79  41  25 CALM      30.35S
ANGEL FIRE     FAIR      67  49  51 CALM      30.46R

$$
NMZ402-403-502-505>509-241800-
WESTCENTRAL MOUNTAINS/SOUTHWEST MOUNTAINS

CITY           SKY/WX    TMP DP  RH WIND       PRES   REMARKS
GALLUP         FAIR      83  45  26 VRB6      30.28S
GRANTS         FAIR      84  43  23 W6        30.30S
SILVER CITY    FAIR      88  47  24 NW18G24   30.18R

$$
NMZ407-409-411-412-241800-
SOUTHERN DESERTS

CITY           SKY/WX    TMP DP  RH WIND       PRES   REMARKS
LORDSBURG      FAIR      86  55  35 NW15G22   30.11S
DEMING         FAIR      95  46  18 W8        30.06F
LAS CRUCES     FAIR      93  43  17 SW3       30.08S
HOLLOMAN AFB   FAIR      95  48  20 SW8       30.03F
ALAMOGORDO     FAIR      95  46  18 SW9       30.06F
T OR C         FAIR      91  46  21 VRB6      30.11S

$$
NMZ519>523-241800-
CENTRAL VALLEYS/CENTRAL HIGHLANDS

CITY           SKY/WX    TMP DP  RH WIND       PRES   REMARKS
ALBUQUERQUE    FAIR      88  49  25 NW8       30.18S
MORIARTY ARPT  FAIR      87  37  17 E3        30.26S
CLINES CORNERS FAIR      83  46  27 VRB6      30.32S
BELEN          FAIR      90  44  19 NW8       30.16S
SOCORRO        FAIR      92  42  17 N6        30.12S

$$
NMZ524>526-539-540-241800-
SOUTHCENTRAL MOUNTAINS

CITY           SKY/WX    TMP DP  RH WIND       PRES   REMARKS
RUIDOSO          N/A     84  41  21 E14       30.31S

$$
NMZ527>531-241800-
NORTHEAST HIGHLANDS/NORTHEAST PLAINS

CITY           SKY/WX    TMP DP  RH WIND       PRES   REMARKS
LAS VEGAS      FAIR      79  46  31 VRB3      30.32R
RATON          FAIR      83  49  30 S7        30.26S
CLAYTON        PTSUNNY   85  54  34 W3        30.17S

$$
NMZ532>537-241800-
EASTCENTRAL PLAINS

CITY           SKY/WX    TMP DP  RH WIND       PRES   REMARKS
TUCUMCARI      FAIR      93  52  24 VRB7G18   30.10S
CANNON AFB     FAIR      91  56  30 SE13      30.14S
CLOVIS AIRPORT FAIR      90  57  33 SE9       30.14S

$$
NMZ028-029-538-241800-
SOUTHEAST PLAINS

CITY           SKY/WX    TMP DP  RH WIND       PRES   REMARKS
ROSWELL        FAIR      92  55  28 SE13      30.06F
ARTESIA        FAIR      90  59  35 E9        30.06F
CARLSBAD       FAIR      92  57  30 E7        30.03S
HOBBS          SUNNY     90  57  33 SE14      30.10R


$$



USA.gov is the U.S. government's official web portal to all federal, state and local government web resources and services.